Location: Lugrin
(46.4033°N, 6.6674°E)
Time: 02:08:21
(UTC+00:00)

YAOGAN 1 - Pass Details

Date: 18 September 2020
Orbit: 618 x 620 km, 97.9° (Epoch: 29 October)

Event Time Altitude Azimuth Distance (km) Brightness Sun altitude
Rises 18:21:22 0° 173° (S) 2,884 5.8 -8.2°
Reaches altitude 10° 18:23:34 10° 176° (S) 1,983 5.0 -8.6°
Maximum altitude 18:27:50 64° 258° (WSW) 690 3.1 -9.3°
Drops below altitude 10° 18:32:10 10° 341° (NNW) 1,999 5.6 -10.0°
Sets 18:34:23 0° 344° (NNW) 2,910 6.4 -10.4°
